COSMOS 1275 DEB, 12728

Orbit data source: Space-Track

COSMOS 1275 DEB, 12728 is space debris in LEO originally from a launch on Thu, 04 Jun 1981 UTC launched from the Plesetsk Missile And Space Complex (PKMTR). Debris objects in space refer to the collection of defunct objects orbiting the Earth. Examples of debris include non-operational satellites, rocket bodies, and fragments generated from explosions, collisions, or faulty payload assembly.

Loading next visibility...
Identifier
12728, 1981-053BV
Orbit
LEO
Country
Flag of CISCIS
Related business
Manufacturer
Unknown
Mission
Spacecraft
Bus & Motor
Unknown
Mass
Unknown
Launch date (UTC)
1981-06-04 (44 years ago)
Launch vehicle
Unknown
Launch site
Plesetsk Missile And Space Complex (PKMTR)
Object type
Payload
Rocket body
Debris
Shape & HBR
Unknown shape, 0.2 m
Radar Cross Section
Medium (>0.1 m² and <1 m²)

Expand to show TLE details & history
Last TLE update: 15 hours ago

TLE from 15 hours ago
0 COSMOS 1275 DEB
1 12728U 81053BV  25301.40030483  .00000548  00000-0  52594-3 0  9995
2 12728  82.8057 256.0105 0057146 131.3070 352.8685 13.77823230206370
Epoch: 2025-10-28T09:36Z
TLE epoch observation values (Epoch: 2025-10-28T09:36:26.337Z)
Latitude
55.34357°
Longitude
-115.5528°
Altitude
939.113 km
Speed
7.408 km/s
True Right ascension
04h 22m 10s
True Declination
55° 11' 11"
Sunlit
Object was in full shadow at epoch
Visualization orbit readout
Latitude
Unknown
Longitude
Unknown
Altitude
Unknown
Speed
Unknown
Apparent Right ascension
Unknown
Apparent Declination
Unknown
Sunlit
N/A
Visualization observer readout
Local Sidereal Time
20:28:26
Azimuth
Unknown
Elevation
Unknown
Doppler factor
Unknown
Orbital elements
Apogee altitude
1,010.752 km
Perigee altitude
926.783 km
Semi-major axis
7,346.905 km
Eccentricity
0.00571
Inclination
82.8057°
RAAN
256.0105°
Arg. of periapsis
131.307°
True anomaly
352.78662°
Mean anomaly
352.8685°
Eccentric anomaly
352.82762°
Mean motion
3.44657 °/min
Orbital period
104.45 mins
BSTAR
0.00052594
Loading maneuver chart data...
Computing Atmospheric mass density...
Loading historical data...
Loading historical data...
Loading historical data...
Loading historical data...
Loading historical data...
Loading historical data...
Loading historical data...

Documentation

Showing up to 5 results
|